Weather History for Effingham, IL

Change the Weather History Date:

Saturday, September 28, 2013

  Actual Average (KMTO) Record (KMTO)
Temperature  
Mean Temperature 68 °F 62 °F  
Max Temperature 84 °F 73 °F 94 °F (1953)
Min Temperature 54 °F 50 °F 37 °F (1951)
Degree Days  
Heating Degree Days 0 5  
Month to date heating degree days 54  
Since 1 July heating degree days 59  
Cooling Degree Days 4 2  
Month to date cooling degree days 114  
Year to date cooling degree days 1034  
Growing Degree Days 18 (Base 50)    
Moisture  
Dew Point 53 °F    
Average Humidity 59    
Maximum Humidity 91    
Minimum Humidity 30    
Precipitation  
Precipitation 0.00 in 0.11 in 1.23 in (1999)
Month to date precipitation 2.80  
Year to date precipitation 28.70  
Sea Level Pressure  
Sea Level Pressure 30.05 in    
Wind  
Wind Speed 6 mph (SSE)    
Max Wind Speed 16 mph    
Max Gust Speed 25 mph    
Visibility 9 miles    
Events      
T = Trace of Precipitation, MM = Missing Value Source: NWS Daily Summary

Daily Weather History Graph

Daily Weather History Graph

Search for Another Location

Airport:

Trip Planner

Search our weather history database for the weather conditions in past years. The results will help you decide how hot, cold, wet, or windy it might be!

Date:

Astronomy

Sep. 28, 2013 Rise Set
Actual Time 6:47 AM CDT 6:41 PM CDT
Civil Twilight 6:20 AM CDT 7:07 PM CDT
Nautical Twilight 5:49 AM CDT 7:38 PM CDT
Astronomical Twilight 5:18 AM CDT 8:09 PM CDT
Moon 12:37 AM CDT (9/28) 2:57 PM CDT (9/28)
Length of Visible Light 12h 46m
Length of Day
11h 53m
Waning Crescent, 36% of the Moon is Illuminated
Sep 28
Waning Crescent
Oct 4
New
Oct 11
First Quarter
Oct 18
Full
Oct 26
Last Quarter

Hourly Weather History & Observations

Time (CDT) Temp. Heat Index Dew Point Humidity Pressure Visibility Wind Dir Wind Speed Gust Speed Precip Events Conditions
12:15 AM 58.1 °F - 51.8 °F 80% 30.08 in 10.0 mi SE 3.5 mph - N/A   Clear
12:35 AM 57.9 °F - 51.6 °F 80% 30.08 in 10.0 mi SE 3.5 mph - N/A   Clear
12:55 AM 57.6 °F - 51.3 °F 79% 30.08 in 10.0 mi ESE 3.5 mph - N/A   Clear
1:15 AM 57.4 °F - 51.3 °F 80% 30.08 in 10.0 mi ESE 3.5 mph - N/A   Clear
1:35 AM 56.7 °F - 51.6 °F 83% 30.07 in 5.0 mi SE 3.5 mph - N/A   Haze
1:55 AM 55.2 °F - 51.3 °F 87% 30.07 in 10.0 mi Calm Calm - N/A   Clear
2:15 AM 56.1 °F - 51.8 °F 85% 30.07 in 5.0 mi SE 3.5 mph - N/A   Clear
2:35 AM 55.2 °F - 51.6 °F 88% 30.08 in 10.0 mi Calm Calm - N/A   Clear
2:55 AM 54.5 °F - 51.3 °F 89% 30.07 in 10.0 mi Calm Calm - N/A   Clear
3:15 AM 54.1 °F - 51.1 °F 89% 30.07 in 5.0 mi SE 3.5 mph - N/A   Clear
3:35 AM 54.5 °F - 51.4 °F 89% 30.07 in 10.0 mi ESE 3.5 mph - N/A   Clear
3:55 AM 54.0 °F - 51.1 °F 90% 30.06 in 10.0 mi ESE 3.5 mph - N/A   Clear
4:15 AM 54.0 °F - 51.3 °F 91% 30.07 in 7.0 mi ESE 3.5 mph - N/A   Clear
4:35 AM 55.6 °F - 52.5 °F 89% 30.07 in 7.0 mi Calm Calm - N/A   Clear
4:55 AM 55.2 °F - 52.2 °F 89% 30.07 in 7.0 mi SE 3.5 mph - N/A   Clear
5:15 AM 54.9 °F - 51.8 °F 89% 30.08 in 5.0 mi SE 3.5 mph - N/A   Scattered Clouds
5:35 AM 56.5 °F - 52.7 °F 87% 30.08 in 10.0 mi SE 4.6 mph - N/A   Mostly Cloudy
5:55 AM 56.3 °F - 52.7 °F 88% 30.08 in 10.0 mi ESE 4.6 mph - N/A   Scattered Clouds
6:15 AM 56.8 °F - 53.2 °F 88% 30.08 in 7.0 mi ESE 4.6 mph - N/A   Scattered Clouds
6:35 AM 57.2 °F - 53.4 °F 87% 30.08 in 10.0 mi SE 5.8 mph - N/A   Scattered Clouds
6:55 AM 57.6 °F - 53.6 °F 87% 30.09 in 7.0 mi SE 4.6 mph - N/A   Scattered Clouds
7:15 AM 58.3 °F - 54.3 °F 87% 30.10 in 5.0 mi SE 4.6 mph - N/A   Scattered Clouds
7:35 AM 60.4 °F - 55.4 °F 83% 30.10 in 5.0 mi SE 6.9 mph - N/A   Haze
7:55 AM 62.6 °F - 56.1 °F 79% 30.10 in 4.0 mi SE 5.8 mph - N/A   Haze
8:15 AM 64.2 °F - 56.5 °F 76% 30.11 in 3.0 mi SSE 6.9 mph - N/A   Haze
8:35 AM 65.7 °F - 56.1 °F 71% 30.11 in 5.0 mi South 5.8 mph - N/A   Haze
8:55 AM 67.1 °F - 55.8 °F 67% 30.11 in 7.0 mi South 4.6 mph - N/A   Mostly Cloudy
9:15 AM 68.2 °F - 56.5 °F 66% 30.12 in 10.0 mi South 3.5 mph - N/A   Overcast
9:35 AM 69.3 °F - 56.8 °F 65% 30.11 in 10.0 mi South 3.5 mph - N/A   Overcast
9:55 AM 71.1 °F - 57.0 °F 61% 30.11 in 10.0 mi South 4.6 mph - N/A   Overcast
10:15 AM 72.1 °F - 57.2 °F 59% 30.11 in 10.0 mi SSW 6.9 mph - N/A   Overcast
10:35 AM 74.1 °F - 57.6 °F 56% 30.11 in 10.0 mi SSW 9.2 mph - N/A   Overcast
10:55 AM 75.0 °F - 57.4 °F 54% 30.10 in 10.0 mi SSW 10.4 mph - N/A   Overcast
11:15 AM 77.0 °F - 57.2 °F 50% 30.10 in 10.0 mi South 8.1 mph - N/A   Overcast
11:35 AM 79.2 °F - 57.6 °F 47% 30.09 in 10.0 mi South 8.1 mph - N/A   Mostly Cloudy
11:55 AM 79.7 °F - 54.3 °F 41% 30.08 in 10.0 mi SSW 13.8 mph 20.7 mph N/A   Scattered Clouds
12:15 PM 80.6 °F 80.3 °F 53.2 °F 39% 30.08 in 10.0 mi SSW 11.5 mph 24.2 mph N/A   Scattered Clouds
12:35 PM 82.2 °F - 52.2 °F 35% 30.07 in 10.0 mi South 12.7 mph 21.9 mph N/A   Scattered Clouds
12:55 PM 82.4 °F - 48.9 °F 31% 30.06 in 10.0 mi South 16.1 mph 21.9 mph N/A   Scattered Clouds
1:15 PM 82.4 °F - 50.4 °F 33% 30.05 in 10.0 mi South 12.7 mph 18.4 mph N/A   Scattered Clouds
1:35 PM 82.2 °F - 51.4 °F 34% 30.04 in 10.0 mi SSE 13.8 mph 20.7 mph N/A   Scattered Clouds
1:55 PM 82.8 °F - 48.6 °F 30% 30.04 in 10.0 mi South 13.8 mph 23.0 mph N/A   Scattered Clouds
2:15 PM 82.9 °F - 48.9 °F 31% 30.03 in 10.0 mi South 12.7 mph 25.3 mph N/A   Scattered Clouds
2:35 PM 83.3 °F - 49.5 °F 31% 30.03 in 10.0 mi SSW 10.4 mph 20.7 mph N/A   Scattered Clouds
2:55 PM 83.5 °F - 48.9 °F 30% 30.03 in 10.0 mi South 10.4 mph 18.4 mph N/A   Scattered Clouds
3:15 PM 82.6 °F - 49.8 °F 32% 30.02 in 10.0 mi South 11.5 mph 18.4 mph N/A   Mostly Cloudy
3:35 PM 81.9 °F - 49.1 °F 32% 30.02 in 10.0 mi South 8.1 mph 20.7 mph N/A   Scattered Clouds
3:55 PM 81.7 °F - 50.2 °F 33% 30.01 in 10.0 mi South 11.5 mph 18.4 mph N/A   Scattered Clouds
4:15 PM 81.7 °F - 49.8 °F 33% 30.01 in 10.0 mi SSE 13.8 mph 20.7 mph N/A   Scattered Clouds
4:35 PM 80.6 °F - 49.5 °F 34% 30.01 in 10.0 mi South 9.2 mph - N/A   Scattered Clouds
4:55 PM 81.1 °F - 49.8 °F 33% 30.01 in 10.0 mi South 8.1 mph - N/A   Scattered Clouds
5:15 PM 80.2 °F - 50.9 °F 36% 30.00 in 10.0 mi South 8.1 mph - N/A   Scattered Clouds
5:35 PM 79.0 °F - 51.3 °F 38% 30.00 in 10.0 mi South 5.8 mph - N/A   Clear
5:55 PM 77.5 °F - 51.3 °F 40% 30.00 in 10.0 mi South 5.8 mph - N/A   Scattered Clouds
6:15 PM 76.5 °F - 51.6 °F 42% 30.00 in 10.0 mi SSE 5.8 mph - N/A   Scattered Clouds
6:35 PM 75.0 °F - 52.0 °F 44% 30.00 in 10.0 mi South 5.8 mph - N/A   Scattered Clouds
6:55 PM 74.1 °F - 52.2 °F 46% 30.00 in 10.0 mi SSE 5.8 mph - N/A   Clear
7:15 PM 74.3 °F - 52.2 °F 46% 30.00 in 10.0 mi SSE 5.8 mph - N/A   Mostly Cloudy
7:35 PM 74.5 °F - 52.0 °F 45% 30.00 in 10.0 mi SSE 6.9 mph - N/A   Overcast
7:55 PM 73.4 °F - 52.2 °F 47% 30.00 in 10.0 mi SSE 6.9 mph - N/A   Mostly Cloudy
8:15 PM 73.0 °F - 52.3 °F 48% 30.00 in 10.0 mi SSE 8.1 mph - N/A   Scattered Clouds
8:35 PM 72.5 °F - 52.7 °F 50% 30.01 in 10.0 mi SSE 9.2 mph - N/A   Clear
8:55 PM 72.1 °F - 52.7 °F 50% 30.00 in 10.0 mi SSE 8.1 mph - N/A   Clear
9:15 PM 71.8 °F - 52.2 °F 50% 30.01 in 10.0 mi South 9.2 mph - N/A   Clear
9:35 PM 71.2 °F - 52.2 °F 51% 30.01 in 10.0 mi South 8.1 mph - N/A   Clear
9:55 PM 71.2 °F - 52.2 °F 51% 30.01 in 10.0 mi SSE 9.2 mph - N/A   Mostly Cloudy
10:15 PM 70.9 °F - 52.7 °F 53% 30.00 in 10.0 mi SSE 8.1 mph - N/A   Scattered Clouds
10:35 PM 70.7 °F - 53.1 °F 54% 30.01 in 10.0 mi South 8.1 mph - N/A   Clear
10:55 PM 70.2 °F - 53.6 °F 56% 30.01 in 10.0 mi South 6.9 mph - N/A   Scattered Clouds
11:15 PM 70.2 °F - 53.8 °F 56% 30.02 in 10.0 mi SSE 6.9 mph - N/A   Mostly Cloudy
11:35 PM 70.0 °F - 53.8 °F 56% 30.02 in 10.0 mi South 8.1 mph - N/A   Overcast
11:55 PM 70.0 °F - 54.0 °F 57% 30.02 in 10.0 mi South 5.8 mph - N/A   Overcast